Joplin, MO

9:45 PM CST on February 25, 2017 (GMT -0600)
Joplin Regional

Weather History for KJLN - March, 2014

Change the Weather History Date:

Saturday, March 8, 2014

  Actual Average Record
Temperature  
Mean Temperature 36 °F 46 °F  
Max Temperature 43 °F 57 °F 80 °F (1992)
Min Temperature 29 °F 36 °F 4 °F (1996)
Degree Days  
Heating Degree Days 29 19  
Month to date heating degree days 278 159  
Since 1 July heating degree days 4127 3413  
Cooling Degree Days 0 0  
Month to date cooling degree days 0 0  
Year to date cooling degree days 0 1  
Moisture  
Dew Point 31 °F    
Average Humidity 84    
Maximum Humidity 100    
Minimum Humidity 67    
Precipitation  
Precipitation 0.29 in 0.10 in 1.39 in (1999)
Month to date precipitation 0.50 0.83  
Year to date precipitation 1.35 5.18  
Sea Level Pressure  
Sea Level Pressure 30.22 in    
Wind  
Wind Speed 7 mph (North)    
Max Wind Speed 17 mph    
Max Gust Speed 24 mph    
Visibility 3 miles    
Events Fog , Rain    
T = Trace of Precipitation, MM = Missing Value Source: NWS Daily Summary

Daily Weather History Graph

Daily Weather History Graph

Search for Another Location

Airport or City:

Trip Planner

Search our weather history database for the weather conditions in past years. The results will help you decide how hot, cold, wet, or windy it might be!

Date:

Astronomy

Mar. 08, 2014 Rise Set
Actual Time 6:39 AM CST 6:18 PM CST
Civil Twilight 6:13 AM CST 6:44 PM CST
Nautical Twilight 5:43 AM CST 7:14 PM CST
Astronomical Twilight 5:12 AM CST 7:45 PM CST
Moon 11:29 AM CST (3/8) 1:09 AM CST (3/8)
Length of Visible Light 12h 31m
Length of Day
11h 39m
First Quarter, 52% of the Moon is Illuminated
Mar 8
First Quarter
Mar 16
Full
Mar 23
Last Quarter
Mar 30
New
Apr 7
First Quarter

Hourly Weather History & Observations

Time (CST) Temp. Windchill Dew Point Humidity Pressure Visibility Wind Dir Wind Speed Gust Speed Precip Events Conditions
12:53 AM 43.0 °F - 33.1 °F 68% 29.98 in 10.0 mi Calm Calm - N/A   Overcast
1:53 AM 43.0 °F 37.2 °F 34.0 °F 71% 30.01 in 10.0 mi North 10.4 mph - N/A   Scattered Clouds
2:53 AM 42.1 °F 36.6 °F 35.1 °F 76% 30.01 in 7.0 mi NNE 9.2 mph - N/A   Clear
3:53 AM 37.9 °F 31.5 °F 33.1 °F 83% 30.02 in 4.0 mi NNE 9.2 mph - N/A   Haze
4:53 AM 37.0 °F 31.6 °F 33.1 °F 86% 30.06 in 4.0 mi North 6.9 mph - N/A   Overcast
5:06 AM 37.0 °F 29.8 °F 33.1 °F 86% 30.08 in 4.0 mi North 10.4 mph - N/A   Overcast
5:53 AM 36.0 °F 28.5 °F 33.1 °F 89% 30.07 in 3.0 mi NE 10.4 mph 19.6 mph 0.01 in Rain Light Rain
6:30 AM 35.1 °F 27.4 °F 33.1 °F 92% 30.12 in 3.0 mi North 10.4 mph - 0.00 in Rain Light Rain
6:53 AM 35.1 °F 27.9 °F 33.1 °F 92% 30.13 in 3.0 mi NNE 9.2 mph - 0.01 in Rain Light Rain
7:53 AM 34.0 °F 28.0 °F 32.0 °F 92% 30.17 in 2.0 mi NNE 6.9 mph - 0.00 in Rain Light Rain
8:17 AM 34.0 °F 25.0 °F 32.0 °F 92% 30.15 in 2.0 mi NNE 12.7 mph - 0.01 in Rain Light Rain
8:53 AM 32.0 °F 23.0 °F 30.0 °F 92% 30.18 in 2.0 mi North 11.5 mph 20.7 mph 0.04 in Rain Light Rain
9:05 AM 32.0 °F 22.5 °F 30.0 °F 92% 30.16 in 2.0 mi NNE 12.7 mph 24.2 mph 0.01 in Rain Light Rain
9:28 AM 32.0 °F 22.5 °F 28.9 °F 88% 30.17 in 3.0 mi NNE 12.7 mph - 0.01 in   Overcast
9:53 AM 32.0 °F 22.5 °F 28.9 °F 88% 30.19 in 4.0 mi NNE 12.7 mph - 0.01 in   Overcast
10:53 AM 32.0 °F 24.8 °F 28.9 °F 88% 30.24 in 4.0 mi NNE 8.1 mph - 0.00 in Rain Light Rain
11:53 AM 32.0 °F 23.6 °F 28.9 °F 88% 30.24 in 5.0 mi NNE 10.4 mph - 0.00 in Rain Light Rain
12:53 PM 33.1 °F 25.5 °F 30.0 °F 89% 30.25 in 3.0 mi North 9.2 mph - 0.00 in Rain Light Rain
1:53 PM 34.0 °F 27.2 °F 30.9 °F 89% 30.24 in 3.0 mi NNE 8.1 mph - 0.02 in   Overcast
2:53 PM 33.1 °F 26.9 °F 30.9 °F 92% 30.25 in 3.0 mi NNE 6.9 mph - 0.01 in Rain Light Rain
2:56 PM 34.0 °F 27.2 °F 30.9 °F 89% 30.23 in 3.0 mi North 8.1 mph - 0.00 in Rain Light Rain
3:05 PM 33.1 °F 26.9 °F 30.9 °F 92% 30.23 in 2.5 mi NNE 6.9 mph - 0.01 in Rain Light Rain
3:36 PM 33.1 °F 26.1 °F 30.9 °F 92% 30.23 in 2.5 mi North 8.1 mph - 0.04 in Rain Light Rain
3:53 PM 33.1 °F 25.5 °F 30.9 °F 92% 30.25 in 2.5 mi NNE 9.2 mph - 0.04 in Rain Light Rain
4:53 PM 33.1 °F 25.5 °F 30.9 °F 92% 30.25 in 2.0 mi NNE 9.2 mph - 0.03 in Rain Light Rain
5:48 PM 33.8 °F 27.7 °F 32.0 °F 93% 30.26 in 1.8 mi North 6.9 mph - 0.05 in Rain Rain
5:53 PM 34.0 °F 28.8 °F 32.0 °F 92% 30.29 in 1.8 mi North 5.8 mph - 0.06 in Rain Rain
6:53 PM 34.0 °F 28.0 °F 32.0 °F 92% 30.30 in 2.5 mi NE 6.9 mph - 0.06 in Rain Light Rain
7:22 PM 34.0 °F 29.8 °F 32.0 °F 92% 30.29 in 2.5 mi NNE 4.6 mph - 0.00 in   Overcast
7:53 PM 34.0 °F 28.8 °F 32.0 °F 92% 30.32 in 3.0 mi NNE 5.8 mph - 0.00 in   Overcast
8:53 PM 34.0 °F 31.0 °F 33.1 °F 96% 30.34 in 2.5 mi NNE 3.5 mph - N/A   Overcast
9:53 PM 32.0 °F - 32.0 °F 100% 30.34 in 1.8 mi Calm Calm - N/A   Clear
10:07 PM 32.0 °F - 32.0 °F 100% 30.32 in 2.0 mi Calm Calm - N/A   Clear
10:27 PM 30.9 °F 27.5 °F 30.0 °F 96% 30.32 in 1.0 mi NNW 3.5 mph - N/A   Clear
10:33 PM 30.9 °F 27.5 °F 30.0 °F 96% 30.32 in 0.5 mi North 3.5 mph - N/A Fog Light Freezing Fog
10:40 PM 30.9 °F 27.5 °F 30.0 °F 96% 30.32 in 0.2 mi NW 3.5 mph - N/A Fog Light Freezing Fog
10:53 PM 30.0 °F 26.5 °F 30.0 °F 100% 30.35 in 0.2 mi NNW 3.5 mph - N/A Fog Light Freezing Fog
11:33 PM 28.9 °F 25.2 °F 28.9 °F 100% 30.32 in 0.2 mi NNW 3.5 mph - N/A Fog Light Freezing Fog
11:45 PM 28.9 °F 25.2 °F 28.9 °F 100% 30.32 in 0.2 mi NNW 3.5 mph - N/A Fog Light Freezing Fog
11:53 PM 28.9 °F 25.2 °F 28.9 °F 100% 30.34 in 0.2 mi North 3.5 mph - N/A Fog Light Freezing Fog